Sauk Centre, MN

6:43 PM CST on December 14, 2019 (GMT -0600)
Sauk Centre

Weather History for KD39 - October, 2019

Change the Weather History Date:

Saturday, October 5, 2019

  Actual Average (KGHW) Record (KGHW)
Temperature  
Mean Temperature 48 °F -  
Max Temperature 54 °F 64 °F 86 °F (2011)
Min Temperature 42 °F 39 °F 20 °F (1952)
Degree Days  
Heating Degree Days 17    
Moisture  
Dew Point 46 °F    
Average Humidity 95    
Maximum Humidity 99    
Minimum Humidity 84    
Precipitation  
Precipitation 0.47 in - - ()
Sea Level Pressure  
Sea Level Pressure 29.78 in    
Wind  
Wind Speed 13 mph ()    
Max Wind Speed 26 mph    
Max Gust Speed 40 mph    
Visibility 7.3 miles    
Events Rain , Thunderstorm    
Averages and records for this station are not official NWS values.
T = Trace of Precipitation, MM = Missing Value Source: Averaged Metar Reports

Daily Weather History Graph

Daily Weather History Graph

Search for Another Location

Airport or City:

Astronomy

Oct. 05, 2019 Rise Set
Actual Time 7:22 AM CDT 6:52 PM CDT
Civil Twilight 6:53 AM CDT 7:22 PM CDT
Nautical Twilight 6:18 AM CDT 7:56 PM CDT
Astronomical Twilight 5:43 AM CDT 8:31 PM CDT
Moon 3:06 PM CDT (10/5) 11:59 PM CDT (10/5)
Length of Visible Light 12h 29m
Length of Day
11h 29m
Waxing Crescent, 50% of the Moon is Illuminated
Oct 5
Waxing Crescent
Oct 13
Full
Oct 21
Last Quarter
Oct 27
New
Nov 4
First Quarter

Hourly Weather History & Observations

Time (CDT) Temp. Windchill Dew Point Humidity Pressure Visibility Wind Dir Wind Speed Gust Speed Precip Events Conditions
12:19 AM 42.8 °F 36.6 °F 41.5 °F 95% 30.11 in 10.0 mi ESE 11.5 mph - N/A   Overcast
12:36 AM 42.8 °F 35.4 °F 41.7 °F 96% 30.09 in 10.0 mi ESE 15.0 mph 19.6 mph N/A Rain Light Rain
12:55 AM 42.8 °F 35.1 °F 41.9 °F 97% 30.08 in 10.0 mi ESE 16.1 mph 21.9 mph 0.02 in Rain , Thunderstorm Light Thunderstorms and Rain
1:15 AM 43.0 °F 36.4 °F 42.1 °F 97% 30.08 in 10.0 mi ESE 12.7 mph - N/A Rain Light Rain
1:19 AM 43.2 °F 36.6 °F 42.3 °F 97% 30.08 in 10.0 mi ESE 12.7 mph - N/A Rain Light Rain
1:38 AM 43.3 °F 35.8 °F 42.4 °F 97% 30.04 in 10.0 mi ESE 16.1 mph 24.2 mph 0.01 in Rain Light Rain
1:55 AM 43.7 °F 36.6 °F 42.8 °F 97% 30.02 in 10.0 mi ESE 15.0 mph 23.0 mph 0.02 in Rain Rain
2:15 AM 43.7 °F 36.6 °F 43.0 °F 97% 29.99 in 3.0 mi East 15.0 mph 25.3 mph 0.04 in Rain , Thunderstorm Rain
2:16 AM 43.9 °F 36.5 °F 43.2 °F 97% 29.99 in 3.0 mi East 16.1 mph 24.2 mph 0.04 in Rain , Thunderstorm Rain
2:35 AM 44.2 °F 37.3 °F 43.3 °F 97% 29.99 in 10.0 mi ESE 15.0 mph 20.7 mph 0.05 in Thunderstorm Overcast
2:36 AM 44.2 °F 38.0 °F 43.3 °F 97% 29.99 in 10.0 mi ESE 12.7 mph 20.7 mph 0.05 in Thunderstorm Overcast
3:16 AM 44.6 °F 39.7 °F 43.7 °F 97% 30.01 in 10.0 mi SE 9.2 mph - N/A   Overcast
3:35 AM 44.8 °F 41.6 °F 43.7 °F 96% 30.03 in 7.0 mi SE 5.8 mph - 0.02 in Rain Rain
3:36 AM 44.8 °F 41.6 °F 43.7 °F 96% 30.03 in 7.0 mi SSE 5.8 mph - 0.03 in Rain Rain
3:55 AM 44.8 °F 40.4 °F 43.9 °F 97% 30.00 in 1.5 mi ESE 8.1 mph - 0.16 in   Overcast
3:56 AM 44.6 °F 40.2 °F 43.9 °F 97% 30.00 in 1.5 mi ESE 8.1 mph - 0.16 in   Overcast
4:18 AM 44.6 °F 39.2 °F 44.1 °F 98% 29.98 in 5.0 mi ESE 10.4 mph - 0.08 in Rain , Thunderstorm Rain
4:36 AM 44.6 °F 39.2 °F 44.1 °F 98% 29.97 in 5.0 mi ESE 10.4 mph - 0.14 in Rain Rain
4:56 AM 44.8 °F 38.3 °F 44.4 °F 99% 29.94 in 10.0 mi ESE 13.8 mph 17.3 mph 0.16 in Rain Light Rain
5:15 AM 45.0 °F 38.2 °F 44.6 °F 99% 29.92 in 10.0 mi ESE 15.0 mph 18.4 mph N/A   Light Drizzle
5:16 AM 45.0 °F 37.9 °F 44.6 °F 99% 29.91 in 10.0 mi ESE 16.1 mph 23.0 mph N/A   Drizzle
5:38 AM 45.1 °F 37.9 °F 44.6 °F 98% 29.89 in 10.0 mi ESE 17.3 mph 21.9 mph 0.01 in Rain Light Rain
5:57 AM 45.3 °F 38.7 °F 44.8 °F 98% 29.89 in 10.0 mi ESE 15.0 mph 20.7 mph 0.01 in Rain Light Rain
6:16 AM 45.5 °F 39.6 °F 44.8 °F 97% 29.89 in 10.0 mi SE 12.7 mph 18.4 mph N/A   Overcast
6:35 AM 45.9 °F 40.0 °F 45.1 °F 97% 29.88 in 10.0 mi ESE 12.7 mph 20.7 mph N/A   Overcast
6:36 AM 45.9 °F 39.7 °F 45.1 °F 97% 29.88 in 10.0 mi SE 13.8 mph 20.7 mph N/A   Overcast
6:55 AM 46.0 °F 40.6 °F 45.5 °F 98% 29.86 in 10.0 mi SE 11.5 mph 17.3 mph N/A   Overcast
6:59 AM 46.0 °F 39.9 °F 45.5 °F 98% 29.86 in 10.0 mi ESE 13.8 mph 17.3 mph N/A   Overcast
7:17 AM 46.4 °F 40.4 °F 45.5 °F 97% 29.85 in 10.0 mi SE 13.8 mph 20.7 mph N/A   Overcast
7:36 AM 46.4 °F 40.4 °F 45.7 °F 97% 29.83 in 7.0 mi SE 13.8 mph 25.3 mph N/A   Overcast
7:55 AM 46.8 °F - 46.2 °F 98% 29.82 in 5.0 mi SE 15.0 mph 20.7 mph N/A   Overcast
7:56 AM 46.8 °F - 46.2 °F 98% 29.82 in 5.0 mi SE 15.0 mph 20.7 mph N/A   Overcast
8:15 AM 47.1 °F - 46.4 °F 97% 29.81 in 3.0 mi SE 13.8 mph 20.7 mph N/A Rain Light Rain
8:38 AM 47.3 °F - 46.6 °F 97% 29.79 in 2.5 mi SE 16.1 mph 21.9 mph N/A   Drizzle
8:57 AM 47.3 °F - 46.9 °F 99% 29.77 in 2.0 mi SE 12.7 mph - N/A   Drizzle
9:16 AM 47.5 °F - 47.1 °F 99% 29.75 in 1.5 mi SE 15.0 mph 19.6 mph 0.01 in Rain Rain
9:35 AM 47.7 °F - 47.3 °F 99% 29.75 in 1.8 mi SE 11.5 mph - 0.01 in Rain Rain
9:36 AM 47.7 °F - 47.3 °F 99% 29.75 in 1.8 mi SE 11.5 mph - 0.01 in Rain Light Rain
9:55 AM 48.2 °F - 47.7 °F 98% 29.75 in 2.0 mi SE 11.5 mph - 0.01 in   Drizzle
9:59 AM 48.2 °F - 47.8 °F 99% 29.75 in 2.0 mi SE 10.4 mph - 0.01 in   Drizzle
10:17 AM 48.6 °F - 48.4 °F 99% 29.74 in 1.8 mi SSE 11.5 mph - N/A Rain Light Rain
10:36 AM 49.1 °F - 48.7 °F 99% 29.72 in 1.8 mi SE 12.7 mph - N/A Rain Light Rain
10:55 AM 49.1 °F - 48.7 °F 99% 29.72 in 1.8 mi SSE 15.0 mph - N/A Rain Rain
10:56 AM 49.1 °F - 48.7 °F 99% 29.72 in 1.8 mi SSE 15.0 mph - N/A Rain Rain
11:15 AM 49.5 °F - 49.1 °F 99% 29.70 in 1.8 mi SE 13.8 mph 18.4 mph N/A Rain Light Rain
11:16 AM 49.5 °F - 49.1 °F 99% 29.70 in 1.5 mi SE 13.8 mph 18.4 mph N/A Rain Light Rain
11:38 AM 49.5 °F - 49.1 °F 99% 29.68 in 1.8 mi SE 13.8 mph 17.3 mph 0.01 in Rain Light Rain
11:56 AM 49.8 °F - 49.5 °F 99% 29.68 in 2.0 mi SSE 13.8 mph - 0.01 in   Light Drizzle
12:15 PM 49.6 °F - 49.3 °F 99% 29.67 in 3.0 mi SSE 12.7 mph 19.6 mph N/A   Drizzle
12:35 PM 50.2 °F - 50.0 °F 99% 29.65 in 3.0 mi SSE 11.5 mph - 0.01 in   Overcast
12:36 PM 50.2 °F - 50.0 °F 99% 29.65 in 3.0 mi SSE 11.5 mph - 0.01 in   Overcast
12:58 PM 50.4 °F - 50.0 °F 99% 29.64 in 4.0 mi SSE 11.5 mph 16.1 mph 0.01 in   Overcast
1:17 PM 51.3 °F - 50.9 °F 99% 29.61 in 5.0 mi SSE 15.0 mph - N/A   Overcast
1:35 PM 51.3 °F - 50.9 °F 99% 29.61 in 10.0 mi South 13.8 mph - N/A   Overcast
1:36 PM 51.3 °F - 50.9 °F 99% 29.61 in 10.0 mi South 13.8 mph - N/A   Overcast
1:55 PM 51.4 °F - 50.9 °F 98% 29.61 in 10.0 mi South 13.8 mph - N/A   Overcast
1:56 PM 51.4 °F - 50.9 °F 98% 29.61 in 10.0 mi South 12.7 mph - N/A   Overcast
2:15 PM 51.8 °F - 51.1 °F 97% 29.60 in 3.0 mi South 10.4 mph - N/A Rain Rain
2:20 PM 52.0 °F - 51.3 °F 97% 29.60 in 3.0 mi South 10.4 mph - N/A   Drizzle
2:37 PM 52.0 °F - 51.4 °F 98% 29.59 in 10.0 mi South 12.7 mph 17.3 mph N/A   Light Drizzle
2:56 PM 52.7 °F - 51.8 °F 97% 29.59 in 5.0 mi SW 15.0 mph 20.7 mph N/A Rain Light Rain
3:15 PM 53.1 °F - 51.8 °F 95% 29.60 in 5.0 mi WSW 10.4 mph 17.3 mph N/A Rain Light Rain
3:16 PM 53.1 °F - 51.8 °F 95% 29.60 in 5.0 mi SW 12.7 mph 17.3 mph N/A Rain Light Rain
3:35 PM 53.1 °F - 51.1 °F 93% 29.60 in 10.0 mi WSW 13.8 mph 19.6 mph N/A   Overcast
3:36 PM 53.1 °F - 50.9 °F 92% 29.60 in 10.0 mi SW 11.5 mph 19.6 mph N/A   Overcast
3:58 PM 54.0 °F - 50.9 °F 89% 29.60 in 10.0 mi SW 12.7 mph 18.4 mph N/A   Overcast
4:17 PM 53.6 °F - 50.2 °F 88% 29.61 in 5.0 mi SW 12.7 mph 21.9 mph N/A Rain Rain
4:35 PM 52.5 °F - 50.4 °F 92% 29.61 in 10.0 mi West 13.8 mph 19.6 mph 0.01 in   Overcast
4:36 PM 52.7 °F - 50.4 °F 92% 29.61 in 10.0 mi West 15.0 mph 19.6 mph 0.01 in   Overcast
4:55 PM 51.6 °F - 49.1 °F 91% 29.62 in 7.0 mi West 16.1 mph 25.3 mph 0.01 in   Overcast
5:00 PM 51.3 °F - 49.1 °F 92% 29.63 in 7.0 mi West 15.0 mph 23.0 mph N/A   Overcast
5:16 PM 50.5 °F - 48.7 °F 94% 29.64 in 7.0 mi West 16.1 mph 23.0 mph 0.01 in Rain Light Rain
5:35 PM 50.9 °F - 47.3 °F 87% 29.65 in 10.0 mi West 25.3 mph 35.7 mph 0.01 in   Overcast
5:55 PM 49.1 °F - 46.6 °F 91% 29.67 in 10.0 mi West 25.3 mph 34.5 mph 0.01 in   Mostly Cloudy
5:56 PM 49.1 °F - 46.4 °F 90% 29.67 in 10.0 mi West 24.2 mph 34.5 mph 0.01 in   Mostly Cloudy
6:15 PM 48.4 °F - 45.1 °F 89% 29.68 in 10.0 mi West 19.6 mph 34.5 mph N/A   Scattered Clouds
6:36 PM 48.2 °F - 44.6 °F 87% 29.69 in 10.0 mi West 26.5 mph 40.3 mph N/A   Mostly Cloudy
6:55 PM 47.3 °F - 42.8 °F 84% 29.70 in 10.0 mi West 19.6 mph 36.8 mph N/A   Overcast
7:15 PM 46.2 °F 39.3 °F 41.9 °F 85% 29.72 in 10.0 mi West 17.3 mph 25.3 mph N/A   Mostly Cloudy
7:16 PM 46.2 °F 39.3 °F 41.9 °F 85% 29.72 in 10.0 mi West 17.3 mph 25.3 mph N/A   Mostly Cloudy
7:35 PM 46.6 °F - 43.0 °F 87% 29.73 in 10.0 mi West 15.0 mph 23.0 mph N/A   Overcast
7:57 PM 46.9 °F - 43.5 °F 88% 29.74 in 10.0 mi West 16.1 mph 29.9 mph N/A   Overcast
8:16 PM 47.1 °F - 44.1 °F 89% 29.74 in 10.0 mi West 17.3 mph 26.5 mph N/A   Overcast
8:35 PM 47.5 °F - 43.7 °F 87% 29.74 in 10.0 mi West 17.3 mph 26.5 mph N/A   Mostly Cloudy
8:36 PM 47.5 °F - 43.7 °F 87% 29.74 in 10.0 mi West 16.1 mph 26.5 mph N/A   Mostly Cloudy
8:55 PM 47.3 °F - 43.7 °F 87% 29.75 in 10.0 mi West 13.8 mph 18.4 mph N/A   Scattered Clouds
8:56 PM 47.3 °F - 43.7 °F 87% 29.75 in 10.0 mi West 12.7 mph 18.4 mph N/A   Scattered Clouds
9:18 PM 47.3 °F - 43.2 °F 86% 29.76 in 10.0 mi West 10.4 mph - N/A   Clear
9:36 PM 46.8 °F - 43.7 °F 89% 29.77 in 10.0 mi West 13.8 mph 18.4 mph N/A   Clear
9:55 PM 46.4 °F 41.1 °F 43.7 °F 90% 29.77 in 10.0 mi West 11.5 mph - N/A   Scattered Clouds
9:56 PM 46.4 °F 41.1 °F 43.7 °F 90% 29.77 in 10.0 mi West 11.5 mph - N/A   Mostly Cloudy
10:15 PM 46.6 °F - 44.1 °F 91% 29.77 in 10.0 mi West 12.7 mph - N/A   Mostly Cloudy
10:16 PM 46.6 °F - 44.1 °F 91% 29.77 in 10.0 mi West 11.5 mph - N/A   Mostly Cloudy
10:39 PM 46.6 °F - 43.9 °F 90% 29.78 in 10.0 mi WSW 15.0 mph 19.6 mph N/A   Scattered Clouds
10:56 PM 46.8 °F - 43.9 °F 90% 29.79 in 10.0 mi West 13.8 mph 19.6 mph N/A   Clear
11:16 PM 46.4 °F 41.1 °F 43.7 °F 90% 29.79 in 10.0 mi WSW 11.5 mph - N/A   Clear
11:35 PM 46.4 °F 41.1 °F 43.5 °F 90% 29.79 in 10.0 mi West 11.5 mph - N/A   Clear
11:36 PM 46.4 °F 41.1 °F 43.5 °F 90% 29.79 in 10.0 mi West 11.5 mph - N/A   Clear
11:55 PM 46.8 °F - 43.7 °F 89% 29.79 in 10.0 mi WSW 9.2 mph 16.1 mph N/A   Clear